[[{"header":{"parameterUnit":"m.s-1","parameterCategory":1,"la1":30.2991,"la2":30.254,"lo1":-89.0895,"lo2":-89.0444,"dy":0.0017,"dx":0.0017,"nx":28,"ny":28,"refTime":"2023-10-16T21:00:00:Z","depth":0,"parameterNumber":2,"parameterNumberName":"U-component_of_WINDS"},"data":[0,0,0,0,0,0,0,0,0,0,0,0,0,0,0,0,0,0,0,0,0,0,0,0,0,0,0,0,0,0,0,0,0,0,0,0,0,0,0,0,0,0,0,0,0,0,0,0,0,0,0,0,0,0,0,0,0,0,1.3436,1.3435,0,1.3343,1.3342,1.3341,1.3237,1.3235,1.3234,1.3232,1.3138,1.3137,1.3136,0,0,0,0,0,0,0,0,0,0,0,0,0,1.3521,1.352,1.3436,1.3435,1.3433,1.3343,1.3342,1.3341,1.3237,1.3235,1.3233,1.3232,1.3138,1.3137,1.3136,0,0,0,0,0,0,0,0,0,0,0,0,0,1.3462,1.3519,1.3436,1.3371,1.3364,1.3344,1.3342,1.3341,1.3238,1.3235,1.3233,1.3231,1.3139,1.3137,1.3136,1.3172,0,0,1.3131,1.313,0,0,0,0,0,0,0,0,1.3465,1.3459,1.3381,1.3375,1.3368,1.3299,1.3337,1.3284,1.3238,1.3286,1.3232,1.323,1.3193,1.3187,1.3175,1.3168,1.3163,1.313,1.3129,1.3129,1.3128,0,0,0,0,0,0,0,1.3469,1.3462,1.3399,1.338,1.3372,1.3346,1.3335,1.3327,1.3254,1.3281,1.3273,1.3264,1.3189,1.3177,1.3172,1.3162,1.3131,1.3129,1.3128,1.3127,1.3176,1.3179,0,0,0,0,0,0,1.3483,1.3466,1.3402,1.3396,1.3412,1.3346,1.3334,1.3324,1.3253,1.3241,1.3266,1.3259,1.3181,1.3174,1.3168,1.3203,1.3129,1.3127,1.3126,1.3174,1.3177,1.3179,0,0,0,0,0,0,1.3486,1.3479,1.3406,1.3429,1.3418,1.3347,1.3336,1.3323,1.331,1.3242,1.3228,1.3267,1.3179,1.3171,1.3171,1.3199,1.3127,1.3125,1.3171,1.3175,1.3178,1.3277,0,0,0,0,0,0,1.3489,1.348,1.3494,1.343,1.3417,1.3411,1.3338,1.3323,1.3308,1.3298,1.3239,1.3227,1.3176,1.3174,1.3169,1.3195,1.3124,1.3169,1.3173,1.3177,1.327,1.3283,1.3294,0,0,0,0,0,1.3492,1.3526,1.3495,1.3488,1.3432,1.3413,1.3405,1.3346,1.3311,1.3323,1.3279,1.3229,1.3197,1.3175,1.3169,1.3195,1.3167,1.3172,1.3177,1.3265,1.328,1.3293,0,0,0,0,0,0,1.3595,1.3516,1.3481,1.3496,1.3462,1.3395,1.3409,1.3364,1.3339,1.3332,1.3259,1.3247,1.3255,1.3225,1.3202,1.3225,1.3174,1.3179,1.3244,1.3258,1.3269,1.3275,1.3123,0,0,0,0,0,1.3619,1.361,1.3542,1.3561,1.3546,1.3481,1.347,1.3427,1.3389,1.3374,1.333,1.3295,1.3276,1.3265,1.3245,1.3266,1.325,1.3281,1.3292,1.3302,1.3306,1.3312,1.3324,1.3196,1.3196,1.3196,0,0,1.3669,1.3625,1.3624,1.358,1.3549,1.354,1.3469,1.3463,1.3456,1.3373,1.337,1.3337,1.3292,1.3302,1.3305,1.3278,1.3338,1.3309,1.3317,1.3315,1.3318,1.3331,1.3341,1.32,1.3199,1.3198,0,0,1.3755,1.3722,1.3733,1.3703,1.3656,1.3612,1.3615,1.3555,1.3529,1.3525,1.3462,1.3452,1.3423,1.3393,1.3374,1.3447,1.34,1.3443,1.3502,1.3509,1.3519,1.3528,1.3551,1.3561,1.3447,1.3448,1.3448,0,1.3823,1.3808,1.3745,1.3742,1.3723,1.3648,1.3658,1.3631,1.3581,1.3569,1.354,1.35,1.3465,1.3466,1.3483,1.3472,1.3471,1.3448,1.3523,1.3531,1.3538,1.3559,1.3569,1.3453,1.3452,1.3452,1.3451,0,1.3892,1.3883,1.3897,1.3849,1.3832,1.3836,1.3772,1.3764,1.3722,1.3681,1.3677,1.3632,1.36,1.3598,1.3558,1.3592,1.3576,1.3537,1.3484,1.3556,1.3575,1.3583,1.3461,1.3459,1.3457,1.3456,0,0,1.404,1.3956,1.3962,1.3938,1.388,1.3871,1.3871,1.3839,1.3832,1.3799,1.3796,1.3772,1.3734,1.3712,1.3668,1.3675,1.3732,1.3633,1.363,1.3651,1.3764,1.3793,1.3804,1.3701,1.3702,1.3703,1.3767,0,1.4114,1.4108,1.4051,1.4061,1.405,1.3978,1.3977,1.3941,1.3903,1.3887,1.3845,1.3828,1.378,1.3766,1.377,1.3725,1.3754,1.372,1.3695,1.3695,1.3706,1.3814,1.3845,1.3907,1.3774,1.3775,1.3776,0,1.4199,1.417,1.418,1.412,1.4113,1.4114,1.4078,1.4065,1.4022,1.3994,1.397,1.3919,1.3913,1.3866,1.3855,1.3833,1.382,1.3796,1.3797,1.3791,1.3739,1.3809,1.3926,1.3935,1.3788,1.3787,1.3786,0,1.4302,1.4267,1.4267,1.4249,1.418,1.4181,1.4153,1.4108,1.4092,1.4061,1.405,1.402,1.4003,1.398,1.3922,1.3893,1.3918,1.3866,1.3892,1.3894,1.3899,1.3899,1.4014,1.3895,1.3895,1.3894,1.3894,0,1.4389,1.4397,1.4312,1.4312,1.4318,1.4252,1.426,1.4224,1.4184,1.4175,1.4111,1.4104,1.403,1.4013,1.3969,1.3965,1.3959,1.3934,1.3922,1.3939,1.3942,1.3928,1.3921,1.3897,1.3896,1.3896,1.3895,0,1.4505,1.4449,1.4443,1.4378,1.4362,1.4369,1.4313,1.4309,1.4267,1.4256,1.425,1.4183,1.4161,1.4102,1.4064,1.4034,1.4042,1.4021,1.4056,1.4048,1.4077,1.4074,1.4185,1.4195,1.4073,1.4074,1.4075,0,1.4563,1.4567,1.4502,1.4491,1.4465,1.4449,1.4432,1.4367,1.4352,1.4302,1.4304,1.4277,1.4251,1.4218,1.4166,1.4136,1.4112,1.4153,1.4107,1.4123,1.411,1.4109,1.4108,1.4162,1.4164,1.4165,1.4167,0,1.4671,1.4643,1.4621,1.4589,1.457,1.4542,1.451,1.4505,1.4431,1.4417,1.4393,1.4373,1.4334,1.4307,1.4269,1.4238,1.4189,1.4182,1.4186,1.4202,1.4221,1.4208,1.4081,1.4179,1.4178,1.4177,1.4176,1.4176,1.4758,1.4757,1.4711,1.4688,1.4657,1.4628,1.4621,1.4578,1.4557,1.452,1.4483,1.4462,1.4417,1.4361,1.4333,1.4315,1.429,1.4297,1.4298,1.43,1.4307,1.4226,1.4309,1.4308,1.4308,1.4307,1.4307,0,1.486,1.4827,1.4807,1.4763,1.4745,1.4702,1.4664,1.4651,1.4634,1.4596,1.4572,1.4543,1.4516,1.4462,1.4429,1.4425,1.4402,1.4419,1.4417,1.441,1.4333,1.4331,1.4438,1.4438,1.4438,1.4438,1.4438,1.4438,1.4911,1.4907,1.4874,1.4853,1.4819,1.4798,1.478,1.4752,1.4722,1.4693,1.467,1.4635,1.4589,1.4553,1.4525,1.451,1.45,1.4523,1.4501,1.4429,1.4416,1.4404,1.4402,1.4522,1.4522,1.4579,1.458,1.458]},{"header":{"parameterUnit":"m.s-1","parameterCategory":1,"la1":30.2991,"la2":30.254,"lo1":-89.0895,"lo2":-89.0444,"dy":0.0017,"dx":0.0017,"nx":28,"ny":28,"refTime":"2023-10-16T21:00:00:Z","depth":0,"parameterNumber":3,"parameterNumberName":"V-component_of_WINDS"},"data":[0,0,0,0,0,0,0,0,0,0,0,0,0,0,0,0,0,0,0,0,0,0,0,0,0,0,0,0,0,0,0,0,0,0,0,0,0,0,0,0,0,0,0,0,0,0,0,0,0,0,0,0,0,0,0,0,0,0,1.8934,1.8934,0,1.8927,1.8927,1.8926,1.8883,1.8882,1.8881,1.888,1.887,1.8871,1.8872,0,0,0,0,0,0,0,0,0,0,0,0,0,1.8907,1.8908,1.8934,1.8934,1.8934,1.8927,1.8927,1.8926,1.8883,1.8882,1.8881,1.8879,1.887,1.8871,1.8872,0,0,0,0,0,0,0,0,0,0,0,0,0,1.8911,1.8908,1.8934,1.8912,1.8909,1.8927,1.8927,1.8926,1.8883,1.8882,1.888,1.8879,1.887,1.8871,1.8872,1.891,0,0,1.8875,1.8876,0,0,0,0,0,0,0,0,1.8911,1.8912,1.8915,1.8913,1.8911,1.8904,1.8913,1.8921,1.8884,1.8893,1.888,1.8878,1.8883,1.8883,1.8885,1.891,1.8909,1.8875,1.8876,1.8877,1.8877,0,0,0,0,0,0,0,1.8911,1.8912,1.8931,1.8915,1.8913,1.89,1.8899,1.8915,1.8897,1.8892,1.8889,1.8889,1.8881,1.8884,1.8884,1.8909,1.8875,1.8876,1.8877,1.8877,1.896,1.8961,0,0,0,0,0,0,1.8914,1.8912,1.8931,1.8931,1.8907,1.8902,1.8901,1.8908,1.8897,1.8893,1.889,1.8887,1.8883,1.8883,1.8884,1.8925,1.8877,1.8878,1.8878,1.8958,1.896,1.8962,0,0,0,0,0,0,1.8914,1.8916,1.8932,1.8921,1.8922,1.8904,1.8912,1.8909,1.8911,1.8895,1.8891,1.8896,1.8881,1.8882,1.8903,1.8924,1.8878,1.8879,1.8956,1.8959,1.8961,1.9009,0,0,0,0,0,0,1.8913,1.8916,1.8932,1.8921,1.8923,1.8953,1.8914,1.891,1.8913,1.8909,1.89,1.8897,1.888,1.8901,1.8904,1.8924,1.888,1.8955,1.8958,1.896,1.9005,1.9012,1.9018,0,0,0,0,0,1.8912,1.8946,1.8933,1.8935,1.8942,1.8954,1.8955,1.8936,1.8915,1.8929,1.8918,1.8897,1.8921,1.8904,1.8906,1.8927,1.8953,1.8957,1.896,1.9002,1.9011,1.9018,0,0,0,0,0,0,1.896,1.8944,1.893,1.8961,1.8959,1.8947,1.8965,1.8946,1.8949,1.8945,1.892,1.8919,1.8942,1.8937,1.8918,1.8961,1.8933,1.8937,1.8964,1.8972,1.8979,1.8979,1.8881,0,0,0,0,0,1.8974,1.8986,1.8972,1.9001,1.9001,1.8983,1.8988,1.8973,1.8969,1.8968,1.8959,1.8956,1.8962,1.8967,1.8972,1.9004,1.8999,1.9019,1.9026,1.9031,1.9035,1.9047,1.9055,1.8973,1.8973,1.8973,0,0,1.9004,1.8997,1.9006,1.901,1.9007,1.9018,1.8983,1.8997,1.9005,1.897,1.8989,1.8982,1.8976,1.9001,1.9012,1.8998,1.9056,1.9036,1.904,1.9041,1.9052,1.906,1.9067,1.8976,1.8975,1.8975,0,0,1.9063,1.906,1.9083,1.9079,1.9074,1.9061,1.9067,1.9056,1.905,1.9068,1.9041,1.9049,1.9062,1.9058,1.9058,1.9111,1.909,1.9113,1.9148,1.9161,1.9167,1.9173,1.9189,1.9196,1.9117,1.9117,1.9117,0,1.91,1.9118,1.9096,1.9112,1.9113,1.9082,1.9103,1.91,1.9097,1.9098,1.9082,1.9094,1.9089,1.9111,1.9124,1.9125,1.9128,1.9115,1.9168,1.9173,1.9178,1.9194,1.92,1.912,1.912,1.9119,1.9119,0,1.9162,1.9174,1.9193,1.919,1.9193,1.9212,1.9191,1.9197,1.9181,1.9169,1.9186,1.9177,1.9179,1.9183,1.9168,1.9202,1.9193,1.9173,1.9144,1.9189,1.9203,1.9209,1.9124,1.9123,1.9122,1.9122,0,0,1.9254,1.9236,1.9243,1.924,1.923,1.9238,1.9253,1.9255,1.9259,1.9257,1.9267,1.9277,1.9257,1.9256,1.924,1.9252,1.9291,1.923,1.9229,1.9239,1.9324,1.9338,1.9346,1.9277,1.9278,1.9279,1.9324,0,1.9309,1.9335,1.9314,1.9343,1.9352,1.9321,1.9333,1.9328,1.9316,1.9321,1.9308,1.9314,1.9289,1.9288,1.9298,1.9284,1.9307,1.9281,1.9284,1.9285,1.9286,1.9354,1.937,1.9413,1.933,1.933,1.9331,0,1.9378,1.9377,1.9407,1.9392,1.9395,1.9407,1.9404,1.941,1.9402,1.9392,1.939,1.9369,1.9381,1.9352,1.9366,1.9348,1.9348,1.9341,1.9342,1.9341,1.931,1.9353,1.9426,1.9432,1.934,1.9339,1.9339,0,1.9438,1.9446,1.9463,1.9462,1.9445,1.9454,1.9447,1.9437,1.9438,1.9435,1.9435,1.9434,1.9433,1.9431,1.9409,1.9391,1.9425,1.9395,1.9415,1.9416,1.9424,1.9423,1.9497,1.9426,1.9426,1.9426,1.9425,0,1.9502,1.9521,1.949,1.9501,1.952,1.9495,1.9514,1.9504,1.9494,1.9501,1.9474,1.948,1.9452,1.9455,1.9438,1.945,1.945,1.9441,1.9436,1.9443,1.9444,1.9442,1.9438,1.9427,1.9427,1.9427,1.9426,0,1.9573,1.9554,1.9571,1.9553,1.9549,1.9563,1.9547,1.9555,1.954,1.9549,1.9549,1.9527,1.9528,1.9506,1.9504,1.9492,1.9511,1.9501,1.9514,1.951,1.9531,1.9528,1.9605,1.9612,1.9538,1.9539,1.954,0,1.9615,1.9628,1.9611,1.9613,1.9608,1.9613,1.9612,1.9587,1.9588,1.9577,1.9586,1.9585,1.9583,1.9586,1.9568,1.9565,1.9554,1.9581,1.9553,1.9559,1.9552,1.9551,1.9551,1.9587,1.9588,1.9588,1.9589,0,1.9689,1.9678,1.968,1.9677,1.9677,1.9674,1.9668,1.9671,1.9643,1.9645,1.9646,1.9644,1.964,1.9639,1.9632,1.9623,1.96,1.9597,1.9601,1.9608,1.9614,1.9609,1.9528,1.9596,1.9595,1.9595,1.9594,1.9594,1.9746,1.9755,1.9743,1.9744,1.9737,1.9732,1.9738,1.9723,1.9724,1.9718,1.9703,1.9706,1.9693,1.9681,1.9673,1.9674,1.966,1.9667,1.9668,1.967,1.9673,1.9615,1.9673,1.9672,1.9672,1.9672,1.9672,0,1.9817,1.9807,1.9809,1.9801,1.9801,1.978,1.9772,1.9773,1.9776,1.9766,1.9764,1.9763,1.976,1.9741,1.9736,1.9739,1.9729,1.9738,1.9737,1.9735,1.9686,1.9682,1.9747,1.9747,1.9747,1.9747,1.9747,1.9747,1.9854,1.9867,1.9854,1.9862,1.9852,1.9854,1.9851,1.9845,1.9837,1.9837,1.9834,1.9822,1.9807,1.98,1.9795,1.9789,1.9788,1.9801,1.9791,1.9746,1.9739,1.9732,1.9728,1.9801,1.9801,1.984,1.984,1.984]}]]